Regional Weather Roundup
Issued by NWS Boston, MA

Current Version | Previous Version | Text Only | Print | Product List | Glossary On
Versions: 1 2 3 4 5 6 7 8 9 10 11 12 13 14 15 16 17 18 19 20 21 22 23 24 25 26 27 28 29 30 31 32 33 34 35 36 37 38 39 40 41 42 43 44 45 46 47 48 49 50
180 ASUS41 KBOX 160904 RWRBOX REGIONAL WEATHER ROUNDUP NATIONAL WEATHER SERVICE BOSTON/NORTON MA 500 AM EDT SUN MAY 16 2021 NOTE: "FAIR" INDICATES FEW OR NO CLOUDS BELOW 12,000 FEET WITH NO SIGNIFICANT WEATHER AND/OR OBSTRUCTIONS TO VISIBILITY. MAZALL-161000- EASTERN MASSACHUSETTS CITY SKY/WX TMP DP RH WIND PRES REMARKS BOSTON CLOUDY 63 37 38 W7 30.19S BEVERLY MOCLDY 53 40 61 W3 30.18R LAWRENCE MOCLDY 52 41 66 SW5 30.20R BEDFORD MOCLDY 49 42 77 CALM 30.19R BLUE HILL N/A 57 38 48 W10 30.18S NORWOOD MOCLDY 47 42 83 CALM 30.20S MARSHFIELD PTCLDY 54 43 66 W6 30.19S PLYMOUTH PTCLDY 45 41 86 CALM 30.20R TAUNTON PTCLDY 43 41 93 CALM 30.20S NEW BEDFORD PTCLDY 47 42 83 CALM 30.20S $$ MAZALL-161000- CAPE COD AND THE ISLANDS CITY SKY/WX TMP DP RH WIND PRES REMARKS FALMOUTH CLEAR 50 43 76 W3 30.21S HYANNIS N/A 53 43 68 SW6 30.19R CHATHAM PTCLDY 56 46 69 SW6 30.21S PROVINCETOWN CLEAR 54 45 71 W9 30.19S NANTUCKET PTCLDY 52 47 83 SW7 30.22S MARTHAS VNYRD PTCLDY 50 42 74 SW5 30.21S $$ MAZALL-161000- CENTRAL AND WESTERN MASSACHUSETTS CITY SKY/WX TMP DP RH WIND PRES REMARKS WORCESTER MOCLDY 60 34 37 NW10 30.21S FITCHBURG MOCLDY 62 35 36 NW5 30.20S ORANGE CLOUDY 51 44 77 CALM 30.23R SPRINGFIELD CLOUDY 54 46 76 E3 30.22R WESTFIELD CLOUDY 56 46 69 VRB5 30.21S NORTH ADAMS MOCLDY 48 N/A N/A NW3 30.25R PITTSFIELD MOCLDY 49 43 80 W3 30.24R $$ RIZALL-161000- RHODE ISLAND CITY SKY/WX TMP DP RH WIND PRES REMARKS PROVIDENCE MOCLDY 55 40 56 W3 30.21S NEWPORT PTCLDY 54 39 57 CALM 30.21S BLOCK ISLAND PTCLDY 52 45 77 SW13 30.24R SMITHFIELD MOCLDY 56 39 53 W6 30.21S WESTERLY MOCLDY 53 44 71 SW3 30.22S $$ CTZALL-161000- CONNECTICUT CITY SKY/WX TMP DP RH WIND PRES REMARKS BRADLEY INTL CLOUDY 54 48 80 NE3 30.22R HARTFORD CLOUDY 57 46 66 CALM 30.22R BRIDGEPORT MOCLDY 55 47 74 CALM 30.23S DANBURY MOCLDY 57 42 57 CALM 30.24S GROTON MOCLDY 54 43 66 CALM 30.22S NEW HAVEN MOCLDY 58 50 75 SW3 30.23S CHESTER FAIR 55 39 54 W3 30.23S MERIDEN NOT AVBL WILLIMANTIC MOCLDY 50 45 83 CALM 30.23R OXFORD MOCLDY 50 41 71 CALM 30.24S $$ MEZ002-015-021-024-NHZ003-005-008-011-012-014-VTZ005-008-161000- NORTHERN NEW ENGLAND CITY SKY/WX TMP DP RH WIND PRES REMARKS PORTLAND ME CLOUDY 48 43 82 W3 30.16R BANGOR ME MOCLDY 47 42 83 CALM 30.17S CONCORD NH MOCLDY 46 40 79 CALM 30.20R MANCHESTER NH MOCLDY 53 41 63 CALM 30.18R NASHUA NH CLOUDY 52 46 80 CALM 30.21R PORTSMOUTH NH CLOUDY 52 38 59 W3 30.18R JAFFREY NH MOCLDY 53 41 63 CALM 30.23S KEENE NH CLOUDY 50 42 74 CALM 30.23S BURLINGTON VT PTCLDY 50 40 68 E3 30.19R MT. WASHINGTON MOCLDY 39 25 56 W15 N/A WCI 31 $$ NYZ052-076-161000- EASTERN NEW YORK CITY SKY/WX TMP DP RH WIND PRES REMARKS ALBANY MOCLDY 50 39 66 CALM 30.23S NEW YORK CITY MOCLDY 65 30 27 W3 30.22F $$ ANZALL-161000- MARINE OBSERVATIONS STATION/POSITION TIME TEMP WIND PRES VSBY WAVE AIR SEA DIR/SP/G HT/PER (UTC) (F) (DEG/KT/KT) (MB) (MI) (FT/S) BOSTON BUOY 0840 51 250/ 8/ 8 1022.4R BUZZARDS BAY 0800 230/ 13/ 13 1024.1R NANTUCKET SOUND 0840 55 N/A MASS BAY-STELLWA 0804 55 250/ 10/ 12 1020.8R 1 7/8 1/ 3 ISLE OF SHOALS 0800 58 260/ 10/ 10 1020.8R S OF BLOCK IS 0826 53 N/A 2/ 9 $$ ......................KEY......................... SKY/WX - SKY CONDITION/PRESENT WEATHER TMP - TEMPERATURE IN FAHRENHEIT DWPT - DEWPOINT IN FAHRENHEIT RH - RELATIVE HUMIDITY IN PERCENT WIND - DIRECTION AND SPEED IN MPH PRES - MEAN SEA LEVEL PRESSURE IN INCHES OF HG WCI - WIND CHILL INDEX VSB - VISIBILITY IN MILES HX - HEAT INDEX TC - TEMPERATURE IN CELSIUS VRB - VARIABLE WIND DIRECTION N/A - NOT AVAILABLE

USA.gov is the U.S. government's official web portal to all federal, state and local government web resources and services.